Location: Baix
(44.7118°N, 4.7648°E)
Time: 14:18:13
(UTC+00:00)

Meteor 2-13 Rocket - Visible Passes

Search period start: 09 December 2021 00:00
Search period end: 19 December 2021 00:00
Orbit: 935 x 958 km, 82.5° (Epoch: 08 December)

Date Brightness Start Highest point End Pass type
(mag) Time Alt. Az. Time Alt. Az. Time Alt. Az.
09 Dec 6.6 03:00:17 19° NE 03:00:17 19° NE 03:02:31 10° NNE visible
09 Dec 5.3 04:44:26 33° NNW 04:44:26 33° NNW 04:47:56 10° N visible
10 Dec 6.5 03:18:11 18° NNE 03:18:11 18° NNE 03:19:45 10° NNE visible
10 Dec 5.9 05:02:18 20° NNW 05:02:18 20° NNW 05:04:26 10° N visible
11 Dec 6.6 03:35:44 15° NNE 03:35:44 15° NNE 03:36:45 10° NNE visible
11 Dec 6.2 05:19:50 13° NNW 05:19:50 13° NNW 05:20:41 10° NNW visible
12 Dec 6.7 03:53:05 13° N 03:53:05 13° N 03:53:36 10° N visible
13 Dec 6.7 04:10:17 10° N 04:10:17 10° N 04:10:18 10° N visible
